Temperature
19 19 19 19 19 19 19 19 19 19 19 19 19 19 19 19 19 19 18 18 18 18 18 18 18 18 18 18 18 18 18 18 18 18 18 18 18 18 18 18 18 18 18
19 19 19 19 19 19 19 19 19 19 19 19 19 19 19 19 19 19 18 18 18 18 18 18 18 18 18 18 18 18 18 18 18 18 18 18 18 18 18 18 18 18 18
19 19 19 19 19 19 19 19 19 19 19 19 19 19 19 19 19 19 18 18 18 18 18 18 18 18 18 18 18 18 18 18 18 18 18 18 18 17 17 17 17 17 17
19 19 19 19 19 19 19 19 19 19 19 19 19 19 19 19 18 19 19 18 18 18 18 18 18 18 18 18 18 18 18 18 18 18 18 18 18 17 17 17 17 17 17
19 19 19 19 19 19 19 19 19 19 19 19 19 19 19 18 18 18 18 18 18 18 18 18 18 18 18 18 18 18 18 18 18 18 17 17 17 17 17 17 17 17 17
19 19 19 19 19 19 19 19 19 19 19 19 19 19 18 18 18 18 18 18 18 18 18 18 18 18 18 18 18 18 18 18 18 18 18 17 17 17 17 17 17 17 17
19 19 19 19 19 19 19 19 19 19 19 19 19 18 18 18 18 18 18 18 18 18 18 18 18 18 18 18 18 18 18 18 18 18 18 17 17 17 17 17 17 17 17
19 19 19 19 19 19 19 19 19 19 19 19 18 18 18 18 18 18 18 18 18 18 18 18 18 18 18 18 18 18 18 18 18 18 18 18 17 17 17 17 17 17 17
19 19 19 19 19 19 19 19 19 19 19 18 18 18 18 18 18 18 18 18 18 18 18 18 18 18 18 18 18 18 18 18 18 18 18 18 17 17 17 17 17 17 17
19 19 19 19 19 19 19 19 19 19 19 18 18 18 18 18 18 18 18 18 18 18 18 18 18 18 18 18 18 18 18 18 18 18 18 17 17 17 17 17 17 17 17
19 19 19 19 19 18 18 18 18 18 18 18 18 18 18 18 18 18 18 18 18 18 18 18 18 18 18 18 18 18 18 18 18 18 18 17 17 17 17 17 17 17 17
19 19 19 19 19 19 19 19 19 19 18 18 18 18 18 18 18 18 18 18 18 18 18 18 18 18 18 18 18 18 18 18 18 17 17 17 17 17 17 17 17 17 17
19 19 19 19 19 19 19 19 19 18 18 18 18 18 18 18 18 18 18 18 18 18 18 18 18 18 18 18 18 18 18 18 17 17 17 17 17 17 17 17 17 17 17
19 19 19 19 19 19 19 19 19 18 18 18 18 18 18 18 18 18 18 18 18 18 18 18 18 18 18 18 18 18 18 18 18 18 17 17 17 17 17 17 17 17 17
19 19 19 19 19 19 19 19 19 18 18 18 18 18 18 18 18 18 18 18 18 18 18 18 18 18 18 18 18 18 18 18 18 18 17 17 17 17 17 17 17 17 17
19 19 19 19 19 19 19 19 19 18 18 18 18 18 18 18 18 18 18 18 18 18 18 18 18 18 18 18 18 18 18 18 18 17 17 17 17 17 17 17 17 17 16
20 19 19 19 19 19 19 19 19 19 18 19 18 18 18 18 18 18 18 18 18 18 18 18 18 18 18 18 18 18 18 18 18 17 17 17 17 17 17 17 17 16 16
20 20 19 19 19 19 19 19 19 19 19 19 18 18 18 18 18 18 18 18 18 18 18 18 18 18 18 18 18 18 18 18 18 17 17 17 17 17 17 17 17 17 16
20 20 20 19 19 19 19 19 19 19 19 19 19 19 19 18 18 18 18 18 18 18 18 18 18 18 18 18 18 18 18 18 18 18 17 17 17 17 17 17 17 17 16
20 20 20 20 19 19 19 19 19 19 19 19 19 19 19 18 18 18 18 18 18 18 18 18 18 18 18 18 18 18 18 18 18 18 18 17 17 17 17 17 17 17 17
20 20 20 20 19 19 19 19 19 19 19 19 19 19 18 18 18 19 18 18 18 18 18 18 18 18 18 18 18 18 18 18 18 18 18 18 18 17 17 17 17 17 17
20 20 20 20 19 19 19 19 19 19 19 19 19 19 18 18 18 18 19 18 18 18 18 18 18 18 18 18 18 18 18 18 18 18 18 18 18 17 17 17 17 17 17
20 20 20 20 19 19 19 19 19 19 19 19 19 19 19 19 18 18 18 18 18 18 18 18 18 18 18 18 18 18 18 18 18 18 18 18 18 18 17 17 17 17 17
21 20 20 20 19 19 19 19 19 19 19 19 19 19 19 18 18 18 18 18 18 18 18 18 18 18 18 18 18 18 18 18 18 18 18 18 18 18 18 17 17 17 17
21 21 20 20 20 19 19 19 19 19 19 19 19 19 19 18 18 18 18 18 18 18 18 18 18 18 18 18 18 18 18 18 18 17 17 18 18 18 18 17 17 17 17
21 21 20 20 20 20 19 19 19 19 19 19 19 19 19 19 18 18 18 18 18 18 18 18 18 18 18 18 18 18 18 18 18 18 17 18 18 18 18 17 17 17 17
Wind_Speed
2 2 6 9 10 11 12 13 14 14 14 15 15 15 15 15 14 14 14 13 13 13 13 12 11 11 10 9 8 8 8 9 10 10 10 9 9 9 10 10 10 9 11
4 5 8 9 10 11 12 12 13 13 13 14 14 14 14 14 13 13 12 12 12 12 11 11 10 10 9 8 7 8 8 8 9 9 9 8 8 8 8 9 9 9 11
6 6 8 9 10 11 12 12 12 13 13 13 13 14 13 13 13 13 12 11 10 10 11 10 9 9 9 8 7 7 7 8 8 8 7 6 6 7 8 9 9 10 10
7 6 7 10 10 11 11 12 12 12 12 13 13 13 13 12 12 12 11 10 10 10 10 9 8 8 7 7 7 7 7 7 7 6 5 4 4 6 6 7 9 9 9
6 6 7 10 10 10 10 11 11 11 11 12 12 12 11 11 11 11 10 10 9 9 9 8 7 7 6 7 7 6 6 6 5 5 4 4 3 5 6 7 7 9 9
5 5 7 10 10 10 10 10 10 10 10 11 11 11 10 10 10 10 9 9 8 8 7 6 6 6 6 6 6 5 5 5 4 4 4 4 3 4 5 6 7 7 9
5 5 6 9 9 9 9 9 9 9 9 9 9 9 9 9 9 9 8 7 7 6 6 6 7 6 6 6 5 5 5 4 4 3 3 3 3 4 5 6 6 7 8
5 5 5 7 9 9 9 9 8 8 8 8 7 8 8 7 7 7 7 6 6 6 6 6 6 6 6 6 5 5 5 4 3 3 3 3 3 4 5 5 5 6 6
4 4 3 4 6 7 7 8 7 7 7 7 6 7 7 7 7 7 7 6 6 6 6 6 6 5 5 5 5 5 4 4 4 2 2 2 4 4 4 4 5 5 6
4 3 3 3 3 4 5 6 6 6 6 6 6 6 6 6 6 5 5 5 5 5 5 5 4 5 4 4 4 4 3 3 3 2 1 2 3 4 4 4 4 5 5
3 2 3 3 2 3 3 4 4 5 5 5 4 5 5 5 4 3 3 4 4 4 4 4 4 4 4 4 4 4 3 2 2 1 1 2 2 2 3 4 4 4 4
4 2 2 2 2 2 2 3 2 2 3 3 3 4 4 3 3 3 3 4 4 3 4 4 4 4 4 3 3 3 3 2 2 1 1 1 1 1 3 3 4 4 4
3 3 3 2 2 2 2 2 2 2 2 2 2 3 3 3 3 3 3 3 4 3 3 3 4 3 3 3 2 2 2 2 1 1 1 1 1 1 3 3 3 3 3
4 3 3 3 2 2 2 2 2 2 1 1 2 3 2 1 1 2 2 2 2 2 2 2 2 2 3 3 2 2 2 1 1 1 1 0 1 1 2 2 3 3 3
4 3 3 3 3 3 2 1 2 2 2 2 2 2 3 2 1 1 1 1 2 2 2 2 2 2 2 2 2 2 1 1 1 1 1 1 0 1 1 2 2 2 3
5 4 4 4 4 3 2 1 1 2 2 2 2 2 3 3 2 1 0 1 1 1 1 1 1 1 1 1 2 2 1 1 1 1 1 1 1 0 1 1 1 2 3
5 4 5 5 4 4 3 2 2 2 2 2 2 3 3 3 2 2 1 0 0 1 1 2 2 2 2 2 2 2 1 1 1 0 0 0 1 1 1 1 2 2 3
5 4 5 5 5 4 3 2 2 2 2 2 2 3 4 4 4 2 1 1 1 2 2 1 1 2 2 2 1 1 1 1 0 1 1 1 1 1 2 2 3 4 4
6 5 5 4 5 4 3 2 2 2 2 2 2 2 3 3 4 3 2 1 2 2 1 1 1 1 1 1 1 1 1 0 1 1 1 1 2 2 2 3 3 3 4
5 5 4 4 4 4 3 2 1 1 0 1 2 2 3 3 4 3 2 2 2 2 1 1 1 1 1 1 1 1 1 1 0 1 1 1 2 2 3 3 3 3 3
5 5 5 4 3 3 2 2 2 1 1 1 1 2 3 3 3 3 2 2 2 2 1 2 2 2 1 1 2 2 2 1 0 1 1 1 1 2 2 3 3 2 3
6 6 5 5 4 4 3 2 2 1 1 1 1 1 2 3 3 3 3 2 2 2 2 2 2 1 1 1 2 1 2 3 2 1 0 1 1 2 2 3 3 3 3
7 7 7 5 5 4 3 2 2 2 1 1 1 1 1 2 2 3 3 2 2 2 2 2 2 2 1 0 1 2 2 1 2 2 1 1 1 1 2 2 2 3 3
8 7 6 6 5 4 4 4 4 3 2 2 1 1 1 0 1 2 3 3 2 2 2 2 2 2 3 1 0 0 1 2 1 1 2 2 2 1 2 2 2 3 3
8 7 7 6 5 5 5 5 5 3 2 1 1 0 0 0 0 1 2 2 2 2 2 2 2 2 2 2 1 1 1 1 1 1 2 3 2 2 2 2 2 2 2
6 6 7 6 6 5 5 5 5 4 3 2 1 1 1 1 0 0 1 2 2 2 3 3 2 2 2 2 2 2 2 2 2 2 2 2 2 2 2 2 2 2 2
Wind_Direction
139 136 127 116 116 114 111 108 111 113 114 116 117 120 123 125 126 126 127 128 127 126 123 121 121 122 122 120 117 112 117 123 129 132 133 136 137 139 142 143 140 138 140
132 132 129 117 116 114 112 110 111 115 116 117 117 118 121 123 124 125 125 126 125 125 124 124 123 123 120 117 115 111 113 119 124 128 133 135 138 141 145 146 148 147 150
117 124 130 122 119 117 116 115 115 117 118 119 119 119 120 121 121 122 123 122 121 122 121 120 119 120 118 116 113 113 115 120 123 128 129 132 142 147 152 157 157 155 157
119 119 128 127 125 124 123 120 119 118 120 121 120 120 120 120 121 121 121 120 119 118 118 117 116 115 117 114 111 114 119 121 126 129 122 130 142 143 150 161 162 159 161
111 117 131 129 126 127 127 125 123 119 119 119 120 121 122 123 123 122 121 121 119 118 118 118 114 111 110 111 111 113 119 120 123 115 115 124 129 149 157 167 163 163 166
112 120 132 132 127 127 129 126 122 118 117 115 117 121 122 122 121 121 121 119 117 117 118 117 110 106 107 110 111 109 114 115 109 107 117 128 137 152 161 168 169 168 171
122 123 131 134 131 130 129 126 123 121 120 118 118 119 119 119 118 118 115 114 110 106 108 105 105 105 106 107 105 109 113 113 112 117 128 134 155 165 163 166 169 170 172
124 120 128 139 138 135 130 126 124 123 119 116 114 113 116 118 118 117 116 114 108 102 99 98 106 106 105 103 104 108 110 112 103 108 129 144 171 172 168 170 168 160 157
108 109 108 125 132 135 136 133 131 128 123 118 113 107 113 115 111 106 104 104 105 102 97 97 103 102 99 97 102 109 107 103 90 94 122 145 166 168 165 165 163 159 161
100 102 103 100 105 116 128 138 141 137 130 122 117 109 105 101 99 99 95 98 98 94 96 105 105 97 92 95 108 109 105 92 80 77 104 143 154 162 163 165 164 165 167
128 107 104 103 108 114 124 141 137 137 130 121 113 109 91 76 75 91 94 92 91 91 98 102 100 92 81 78 96 101 94 92 89 80 100 135 152 170 175 167 166 165 164
158 153 131 128 119 119 135 117 109 103 98 100 99 95 85 75 64 74 82 72 69 76 85 77 73 73 66 67 75 87 93 93 87 83 95 120 128 165 171 157 170 174 169
162 165 151 152 142 131 120 125 114 106 97 99 108 108 94 72 58 51 52 36 36 48 61 61 59 65 68 67 70 92 101 100 83 68 71 118 123 128 145 141 150 164 161
157 169 157 153 141 138 128 128 129 126 123 126 130 136 126 88 56 45 41 24 30 47 54 65 64 58 62 65 82 97 99 103 78 64 21 78 125 125 148 155 160 168 166
165 173 168 158 156 154 139 153 135 143 156 163 167 169 161 150 141 76 40 32 28 50 65 68 67 54 49 57 74 97 100 99 92 58 20 29 103 153 167 177 178 176 173
177 179 169 165 163 154 153 151 154 160 175 186 192 191 184 174 164 140 66 27 17 44 54 96 86 62 44 63 53 65 75 93 60 32 9 356 346 167 151 162 182 170 170
180 175 173 173 159 158 167 178 176 177 175 193 205 200 195 191 180 164 145 333 340 90 84 86 66 64 64 65 52 43 50 44 80 17 347 316 320 320 263 225 216 206 196
174 175 185 181 164 167 171 177 179 182 179 199 201 199 200 199 191 172 166 208 163 123 107 89 72 65 52 53 43 15 40 62 172 218 193 232 261 286 289 259 234 222 216
179 177 179 171 165 168 164 170 180 171 178 193 189 198 206 204 192 178 180 190 148 115 101 115 99 115 98 55 42 23 15 360 251 240 220 234 237 248 278 283 265 247 236
170 165 167 163 161 151 139 132 110 103 182 180 195 205 206 203 192 178 174 174 151 125 106 111 126 106 123 108 63 41 5 326 266 261 251 246 249 255 268 280 284 276 258
168 168 172 166 162 145 141 154 152 190 226 228 219 209 207 205 198 180 178 156 151 146 148 134 132 112 84 100 82 28 13 18 7 263 253 247 261 266 268 270 270 272 282
183 181 180 180 171 168 167 162 161 162 198 221 252 205 212 203 196 189 175 172 159 148 134 135 138 125 95 93 119 88 8 355 358 356 315 240 265 273 276 275 268 267 272
193 189 188 184 174 172 159 118 92 69 39 26 357 309 252 207 199 183 181 177 171 166 171 181 169 153 164 110 119 137 132 259 312 335 342 328 307 282 284 285 272 267 262
200 188 184 180 175 172 158 153 155 166 192 222 219 237 313 343 219 193 188 184 175 171 179 203 177 167 160 181 197 134 163 165 171 320 325 328 329 306 298 289 289 277 260
194 186 184 179 182 176 169 172 171 178 189 187 169 153 26 340 254 199 194 185 180 179 187 194 176 174 174 177 182 166 137 108 144 186 282 319 328 303 288 275 282 285 276
183 180 179 180 191 186 180 179 178 184 183 176 200 204 221 239 282 220 187 182 189 188 192 192 185 181 181 175 180 177 167 169 186 186 224 271 298 304 305 288 278 278 278
Height
1504 1504 1505 1505 1506 1506 1507 1508 1509 1510 1511 1513 1514 1515 1516 1518 1519 1520 1522 1523 1524 1525 1526 1527 1529 1530 1530 1531 1531 1529 1528 1528 1530 1533 1537 1539 1540 1542 1543 1544 1545 1546 1548
1505 1506 1507 1507 1508 1509 1509 1510 1511 1512 1514 1515 1516 1517 1518 1520 1521 1522 1524 1525 1526 1527 1528 1529 1530 1531 1532 1532 1532 1531 1531 1532 1534 1536 1538 1540 1541 1542 1543 1544 1546 1547 1548
1506 1508 1509 1510 1511 1511 1512 1513 1514 1515 1516 1517 1518 1519 1521 1522 1523 1524 1526 1527 1528 1529 1530 1531 1532 1533 1533 1534 1534 1534 1534 1535 1536 1538 1539 1540 1542 1543 1544 1545 1546 1547 1548
1508 1510 1511 1512 1513 1514 1515 1515 1516 1517 1519 1520 1521 1522 1523 1524 1525 1526 1528 1529 1530 1531 1532 1533 1534 1534 1535 1536 1536 1536 1536 1537 1538 1539 1540 1541 1542 1543 1544 1545 1546 1547 1548
1510 1512 1513 1514 1515 1516 1517 1518 1519 1520 1521 1522 1523 1524 1525 1526 1527 1528 1530 1531 1532 1533 1534 1535 1535 1536 1537 1537 1537 1538 1538 1539 1539 1540 1541 1541 1542 1543 1544 1545 1546 1547 1548
1512 1514 1515 1517 1518 1519 1520 1521 1521 1522 1523 1524 1526 1526 1527 1529 1530 1531 1532 1533 1534 1534 1535 1536 1537 1537 1538 1538 1539 1539 1540 1540 1540 1540 1541 1542 1542 1543 1544 1545 1545 1546 1548
1514 1516 1517 1519 1520 1521 1522 1523 1524 1525 1526 1527 1528 1529 1529 1531 1532 1532 1533 1535 1536 1536 1537 1538 1538 1539 1539 1540 1540 1540 1541 1541 1541 1540 1541 1541 1542 1543 1543 1544 1545 1546 1547
1516 1518 1520 1521 1522 1524 1525 1526 1526 1527 1528 1529 1530 1531 1531 1532 1533 1534 1535 1536 1537 1538 1539 1539 1540 1540 1541 1541 1541 1542 1542 1541 1541 1540 1540 1541 1541 1542 1543 1544 1544 1545 1546
1518 1520 1521 1523 1524 1526 1527 1528 1529 1529 1530 1531 1532 1533 1534 1535 1536 1536 1537 1538 1539 1540 1540 1541 1541 1542 1542 1542 1542 1543 1543 1542 1542 1541 1541 1541 1541 1542 1543 1543 1544 1545 1546
1520 1522 1523 1525 1526 1528 1529 1530 1531 1531 1532 1533 1534 1535 1536 1537 1537 1538 1539 1540 1540 1541 1542 1542 1543 1543 1543 1544 1544 1544 1544 1543 1543 1542 1542 1542 1542 1542 1543 1543 1544 1544 1545
1521 1523 1525 1526 1528 1529 1530 1531 1532 1533 1534 1535 1536 1537 1538 1539 1539 1540 1541 1541 1542 1543 1543 1544 1544 1545 1545 1545 1545 1545 1545 1544 1544 1543 1543 1542 1542 1541 1541 1542 1543 1544 1545
1522 1524 1526 1528 1529 1531 1532 1533 1534 1535 1536 1537 1538 1539 1539 1540 1541 1542 1542 1543 1544 1544 1545 1545 1546 1546 1546 1546 1546 1546 1545 1545 1544 1544 1544 1543 1542 1540 1541 1542 1543 1544 1545
1524 1526 1527 1529 1530 1532 1533 1534 1535 1536 1537 1538 1539 1540 1541 1542 1542 1543 1544 1544 1545 1545 1546 1546 1547 1547 1547 1547 1547 1547 1546 1546 1545 1545 1545 1544 1543 1542 1542 1543 1544 1545 1545
1525 1527 1528 1530 1532 1533 1534 1535 1536 1537 1538 1539 1540 1541 1542 1543 1544 1545 1545 1546 1546 1547 1547 1547 1548 1548 1548 1548 1548 1548 1547 1547 1546 1546 1546 1545 1545 1544 1544 1545 1545 1545 1546
1527 1528 1530 1531 1533 1534 1535 1536 1537 1538 1539 1540 1541 1542 1543 1544 1545 1546 1546 1547 1547 1547 1548 1548 1548 1549 1549 1549 1549 1548 1548 1548 1547 1546 1546 1546 1546 1546 1546 1546 1546 1546 1546
1528 1529 1531 1532 1534 1535 1536 1537 1538 1539 1540 1541 1542 1543 1544 1545 1546 1546 1547 1547 1548 1548 1549 1549 1549 1549 1549 1549 1549 1549 1549 1549 1548 1548 1548 1547 1547 1546 1546 1546 1546 1546 1546
1529 1531 1532 1533 1535 1536 1537 1538 1539 1540 1541 1542 1542 1543 1544 1545 1546 1547 1548 1548 1549 1549 1549 1549 1549 1549 1550 1550 1550 1549 1549 1549 1549 1549 1548 1548 1547 1547 1547 1547 1547 1546 1547
1530 1531 1533 1534 1535 1537 1538 1539 1540 1541 1541 1542 1543 1544 1545 1546 1546 1547 1548 1548 1549 1549 1549 1550 1550 1550 1550 1550 1550 1550 1550 1550 1549 1549 1549 1548 1548 1548 1547 1547 1547 1547 1547
1530 1532 1533 1534 1536 1537 1538 1539 1540 1541 1542 1542 1543 1544 1545 1546 1547 1547 1548 1549 1549 1549 1550 1550 1550 1550 1550 1550 1550 1550 1550 1550 1549 1549 1549 1549 1548 1548 1547 1547 1547 1547 1546
1531 1532 1533 1535 1536 1537 1538 1539 1540 1541 1542 1543 1543 1544 1545 1546 1547 1548 1548 1549 1549 1549 1549 1549 1550 1550 1550 1550 1550 1550 1550 1549 1549 1549 1549 1548 1548 1548 1547 1547 1547 1546 1546
1530 1532 1533 1534 1536 1537 1538 1539 1540 1541 1542 1543 1544 1544 1545 1546 1547 1547 1548 1549 1549 1549 1549 1549 1549 1549 1549 1550 1550 1549 1549 1549 1549 1549 1549 1548 1548 1548 1547 1547 1546 1546 1546
1529 1531 1533 1534 1536 1537 1538 1539 1540 1541 1542 1543 1544 1544 1544 1545 1546 1547 1548 1548 1549 1549 1549 1549 1549 1549 1549 1549 1549 1549 1549 1550 1549 1549 1548 1548 1548 1547 1547 1546 1546 1545 1545
1528 1530 1532 1533 1535 1536 1537 1538 1540 1541 1541 1542 1543 1543 1544 1545 1545 1546 1547 1548 1548 1548 1548 1548 1549 1549 1549 1549 1549 1550 1549 1548 1548 1549 1548 1548 1547 1547 1546 1546 1545 1545 1544
1527 1529 1531 1532 1534 1535 1537 1538 1539 1539 1540 1541 1542 1543 1543 1544 1545 1545 1546 1547 1547 1547 1548 1548 1548 1548 1548 1548 1548 1549 1549 1548 1548 1548 1548 1547 1547 1546 1546 1545 1545 1544 1543
1526 1528 1529 1531 1533 1534 1535 1537 1538 1538 1539 1540 1541 1542 1542 1543 1543 1544 1545 1545 1546 1546 1546 1547 1547 1547 1547 1547 1548 1548 1548 1548 1548 1547 1547 1546 1546 1545 1545 1544 1544 1543 1542
1524 1526 1528 1529 1531 1533 1534 1535 1536 1537 1538 1539 1540 1540 1541 1541 1542 1543 1543 1544 1544 1545 1545 1546 1546 1546 1546 1546 1546 1547 1547 1547 1546 1546 1545 1545 1544 1544 1544 1543 1542 1542 1541